FDX787 YMML-YSSY

Flight info

Callsign FDX787
Flight time 1h 6m
Altitude 37000
Route DOSEL Y59 RIVET
Aircraft B77L/H-SDE1E2E3FGHIJ2J3J4J5M1RWXY/LB1D1

Departure

Time 2026-05-04 08:33
Airport Melbourne Airport (YMML)

Arrival

Time 2026-05-04 09:39
Airport Sydney Kingsford Smith International Airport (YSSY)
Time Latitude Longitude Altitude Speed Heading
2026-05-04 07:53 -37.67813 144.84874 448 ft 0 kts 171°
2026-05-04 08:17 -37.67803 144.84872 448 ft 2 kts 171°
2026-05-04 08:19 -37.67724 144.84856 448 ft 0 kts 169°
2026-05-04 08:24 -37.67744 144.84659 448 ft 9 kts 252°
2026-05-04 08:24 -37.67784 144.84600 448 ft 9 kts 218°
2026-05-04 08:24 -37.67819 144.84542 448 ft 8 kts 252°
2026-05-04 08:24 -37.67830 144.84466 448 ft 9 kts 262°
2026-05-04 08:25 -37.67839 144.84390 448 ft 9 kts 262°
2026-05-04 08:25 -37.67847 144.84318 448 ft 8 kts 261°
2026-05-04 08:25 -37.67856 144.84251 448 ft 8 kts 261°
2026-05-04 08:25 -37.67859 144.84223 448 ft 1 kts 261°
2026-05-04 08:26 -37.67860 144.84212 448 ft 1 kts 261°
2026-05-04 08:27 -37.67867 144.84154 448 ft 4 kts 262°
2026-05-04 08:28 -37.67869 144.84140 448 ft 0 kts 262°
2026-05-04 08:29 -37.67869 144.84132 448 ft 3 kts 262°
2026-05-04 08:29 -37.67876 144.84072 448 ft 8 kts 262°
2026-05-04 08:31 -37.67258 144.83852 448 ft 130 kts 352°
2026-05-04 08:33 -37.58649 144.84224 5665 ft 227 kts 11°
2026-05-04 08:33 -37.57126 144.84879 5614 ft 236 kts 13°
2026-05-04 08:35 -37.46214 144.92336 7025 ft 270 kts 24°
2026-05-04 08:35 -37.44513 144.93577 7732 ft 289 kts 24°
2026-05-04 08:35 -37.42823 144.94929 9036 ft 284 kts 31°
2026-05-04 08:35 -37.41426 144.96678 10440 ft 286 kts 45°
2026-05-04 08:37 -37.34088 145.09348 15593 ft 323 kts 42°
2026-05-04 08:37 -37.32610 145.11604 16055 ft 345 kts 44°
2026-05-04 08:37 -37.31097 145.14048 16518 ft 366 kts 46°
2026-05-04 08:38 -37.29541 145.16691 16950 ft 386 kts 47°
2026-05-04 08:38 -37.27938 145.19488 17491 ft 402 kts 47°
2026-05-04 08:38 -37.26285 145.22386 18134 ft 414 kts 47°
2026-05-04 08:40 -37.13976 145.43900 23613 ft 449 kts 46°
2026-05-04 08:40 -37.12141 145.47090 24349 ft 454 kts 46°
2026-05-04 08:40 -37.10287 145.50307 25044 ft 458 kts 46°
2026-05-04 08:41 -37.08413 145.53555 25732 ft 462 kts 46°
2026-05-04 08:41 -37.06520 145.56834 26397 ft 466 kts 46°
2026-05-04 08:41 -37.04611 145.60135 27069 ft 470 kts 46°
2026-05-04 08:41 -37.02684 145.63466 27708 ft 474 kts 46°
2026-05-04 08:42 -37.00743 145.66818 28357 ft 477 kts 46°
2026-05-04 08:42 -36.98783 145.70198 28924 ft 482 kts 46°
2026-05-04 08:42 -36.96835 145.73556 29500 ft 485 kts 46°
2026-05-04 08:42 -36.94833 145.77037 30105 ft 488 kts 46°
2026-05-04 08:43 -36.92885 145.80445 30768 ft 487 kts 46°
2026-05-04 08:43 -36.90887 145.83924 31405 ft 487 kts 46°
2026-05-04 08:43 -36.88927 145.87318 31988 ft 487 kts 46°
2026-05-04 08:43 -36.86917 145.90790 32547 ft 488 kts 46°
2026-05-04 08:44 -36.84927 145.94218 33097 ft 488 kts 46°
2026-05-04 08:44 -36.82935 145.97646 33646 ft 487 kts 46°
2026-05-04 08:46 -36.68974 146.21550 36751 ft 489 kts 45°
2026-05-04 08:46 -36.67614 146.23870 36917 ft 491 kts 45°
2026-05-04 08:46 -36.64945 146.28417 36940 ft 491 kts 45°
2026-05-04 08:47 -36.61562 146.34172 36942 ft 491 kts 45°
2026-05-04 08:47 -36.57527 146.41022 36946 ft 490 kts 45°
2026-05-04 08:48 -36.53495 146.47856 36950 ft 491 kts 45°
2026-05-04 08:48 -36.49473 146.54658 36954 ft 492 kts 45°
2026-05-04 08:49 -36.45418 146.61502 36958 ft 492 kts 45°
2026-05-04 08:50 -36.31269 146.85336 36971 ft 490 kts 45°
2026-05-04 08:51 -36.27205 146.92114 36975 ft 490 kts 45°
2026-05-04 08:51 -36.23140 146.98882 36980 ft 489 kts 45°
2026-05-04 08:52 -36.19071 147.05648 36984 ft 490 kts 45°
2026-05-04 08:52 -36.14997 147.12417 36988 ft 491 kts 45°
2026-05-04 08:54 -35.98685 147.39477 37006 ft 492 kts 45°
2026-05-04 08:55 -35.94574 147.46245 37011 ft 494 kts 45°
2026-05-04 08:55 -35.90435 147.53032 37023 ft 495 kts 45°
2026-05-04 09:01 -35.46979 148.23669 37046 ft 494 kts 45°
2026-05-04 09:01 -35.42802 148.30377 37048 ft 495 kts 45°
2026-05-04 09:02 -35.38615 148.37068 37049 ft 495 kts 45°
2026-05-04 09:02 -35.34416 148.43754 37050 ft 495 kts 45°
2026-05-04 09:03 -35.30212 148.50438 37050 ft 496 kts 45°
2026-05-04 09:03 -35.26000 148.57122 37050 ft 496 kts 45°
2026-05-04 09:04 -35.21786 148.63803 37051 ft 496 kts 45°
2026-05-04 09:04 -35.17478 148.70361 37053 ft 489 kts 37°
2026-05-04 09:05 -35.12163 148.75330 37053 ft 479 kts 24°
2026-05-04 09:05 -35.06473 148.79527 37051 ft 475 kts 23°
2026-05-04 09:06 -35.00929 148.83631 37050 ft 453 kts 23°
2026-05-04 09:07 -34.90778 149.07555 36986 ft 528 kts 86°
2026-05-04 09:08 -34.91113 149.12052 36594 ft 537 kts 95°
2026-05-04 09:08 -34.91924 149.16436 36021 ft 540 kts 103°
2026-05-04 09:08 -34.93205 149.20789 35042 ft 550 kts 110°
2026-05-04 09:08 -34.94537 149.25179 34106 ft 554 kts 103°
2026-05-04 09:09 -34.95391 149.29758 33178 ft 556 kts 95°
2026-05-04 09:09 -34.95718 149.34453 32613 ft 554 kts 86°
2026-05-04 09:09 -34.95528 149.39104 32327 ft 545 kts 78°
2026-05-04 09:09 -34.94851 149.43594 32088 ft 533 kts 69°
2026-05-04 09:10 -34.93713 149.47841 31781 ft 522 kts 60°
2026-05-04 09:10 -34.92143 149.51769 31400 ft 512 kts 52°
2026-05-04 09:10 -34.90188 149.55342 31013 ft 502 kts 44°
2026-05-04 09:10 -34.87919 149.58504 30809 ft 487 kts 37°
2026-05-04 09:11 -34.85427 149.61198 30775 ft 472 kts 31°
2026-05-04 09:11 -34.80353 149.66040 30557 ft 453 kts 28°
2026-05-04 09:11 -34.77860 149.68312 30119 ft 444 kts 28°
2026-05-04 09:12 -34.75410 149.70535 29641 ft 435 kts 27°
2026-05-04 09:12 -34.73007 149.72700 29204 ft 426 kts 28°
2026-05-04 09:14 -34.56275 149.87826 25474 ft 424 kts 28°
2026-05-04 09:14 -34.53931 149.89939 25340 ft 416 kts 29°
2026-05-04 09:14 -34.51731 149.92237 25176 ft 420 kts 37°
2026-05-04 09:14 -34.49833 149.94945 25175 ft 425 kts 45°
2026-05-04 09:15 -34.48127 149.97987 25088 ft 448 kts 50°
2026-05-04 09:15 -34.46515 150.01297 25032 ft 460 kts 53°
2026-05-04 09:15 -34.44992 150.04750 25056 ft 467 kts 56°
2026-05-04 09:15 -34.43502 150.08263 25054 ft 471 kts 56°
2026-05-04 09:17 -34.31207 150.36072 25056 ft 456 kts 54°
2026-05-04 09:18 -34.29720 150.39384 25041 ft 439 kts 54°
2026-05-04 09:18 -34.28288 150.42577 25044 ft 415 kts 53°
2026-05-04 09:18 -34.26970 150.45535 25037 ft 395 kts 53°
2026-05-04 09:18 -34.25689 150.48409 25033 ft 383 kts 53°
2026-05-04 09:19 -34.24436 150.51216 25038 ft 376 kts 53°
2026-05-04 09:19 -34.23192 150.53983 25040 ft 374 kts 53°
2026-05-04 09:19 -34.21947 150.56747 24963 ft 375 kts 53°
2026-05-04 09:19 -34.20699 150.59527 24560 ft 377 kts 53°
2026-05-04 09:20 -34.19432 150.62312 23914 ft 379 kts 53°
2026-05-04 09:20 -34.18189 150.65102 23395 ft 375 kts 53°
2026-05-04 09:20 -34.16959 150.67859 22915 ft 370 kts 53°
2026-05-04 09:20 -34.15743 150.70570 22425 ft 366 kts 53°
2026-05-04 09:21 -34.14530 150.73256 21971 ft 361 kts 53°
2026-05-04 09:21 -34.13337 150.75894 21497 ft 357 kts 53°
2026-05-04 09:21 -34.12155 150.78508 21035 ft 354 kts 53°
2026-05-04 09:21 -34.10976 150.81119 20521 ft 355 kts 53°
2026-05-04 09:22 -34.09800 150.83728 19972 ft 353 kts 54°
2026-05-04 09:22 -34.08637 150.86328 19421 ft 352 kts 54°
2026-05-04 09:22 -34.07461 150.88940 18875 ft 359 kts 54°
2026-05-04 09:22 -34.06253 150.91618 18325 ft 367 kts 54°
2026-05-04 09:23 -34.05042 150.94339 17772 ft 370 kts 57°
2026-05-04 09:23 -34.04240 150.97321 17207 ft 383 kts 76°
2026-05-04 09:23 -34.04288 151.00573 16653 ft 394 kts 96°
2026-05-04 09:23 -34.05208 151.03701 16102 ft 402 kts 115°
2026-05-04 09:25 -34.22225 151.11258 12015 ft 388 kts 154°
2026-05-04 09:25 -34.24352 151.13222 11420 ft 384 kts 135°
2026-05-04 09:26 -34.26111 151.15617 10840 ft 378 kts 133°
2026-05-04 09:26 -34.28083 151.17665 10234 ft 372 kts 149°
2026-05-04 09:26 -34.30416 151.18916 9715 ft 363 kts 163°
2026-05-04 09:26 -34.32824 151.19701 9223 ft 356 kts 168°
2026-05-04 09:27 -34.35213 151.20404 8723 ft 351 kts 168°
2026-05-04 09:27 -34.37572 151.21094 8221 ft 346 kts 169°
2026-05-04 09:27 -34.39898 151.21765 7721 ft 342 kts 169°
2026-05-04 09:27 -34.42191 151.22458 7219 ft 338 kts 165°
2026-05-04 09:28 -34.44288 151.23681 6737 ft 334 kts 144°
2026-05-04 09:28 -34.45775 151.25680 6580 ft 315 kts 120°
2026-05-04 09:28 -34.46448 151.28075 6561 ft 289 kts 95°
2026-05-04 09:28 -34.46243 151.30392 6552 ft 271 kts 68°
2026-05-04 09:29 -34.45245 151.32279 6560 ft 266 kts 40°
2026-05-04 09:29 -34.43664 151.33385 6563 ft 256 kts 13°
2026-05-04 09:29 -34.41949 151.33438 6565 ft 248 kts 346°
2026-05-04 09:29 -34.40411 151.32562 6593 ft 243 kts 327°
2026-05-04 09:30 -34.39038 151.31375 6605 ft 243 kts 324°
2026-05-04 09:30 -34.37668 151.30150 6608 ft 246 kts 324°
2026-05-04 09:30 -34.36295 151.28924 6607 ft 246 kts 324°
2026-05-04 09:30 -34.34822 151.27907 6601 ft 245 kts 338°
2026-05-04 09:31 -34.33170 151.27383 6608 ft 246 kts 346°
2026-05-04 09:31 -34.31480 151.27021 6606 ft 246 kts 348°
2026-05-04 09:31 -34.29816 151.26669 6495 ft 240 kts 347°
2026-05-04 09:31 -34.28154 151.26284 6024 ft 245 kts 347°
2026-05-04 09:32 -34.26499 151.25877 5562 ft 238 kts 347°
2026-05-04 09:32 -34.24915 151.25477 5123 ft 227 kts 347°
2026-05-04 09:34 -34.15632 151.23066 3014 ft 169 kts 348°
2026-05-04 09:34 -34.14549 151.22783 2995 ft 154 kts 348°
2026-05-04 09:34 -34.13463 151.22500 3035 ft 166 kts 348°
2026-05-04 09:34 -34.12326 151.22203 3010 ft 168 kts 348°
2026-05-04 09:35 -34.11179 151.21904 2973 ft 169 kts 348°
2026-05-04 09:35 -34.10033 151.21606 2745 ft 169 kts 348°
2026-05-04 09:35 -34.08891 151.21308 2528 ft 167 kts 348°
2026-05-04 09:35 -34.07758 151.21013 2296 ft 165 kts 348°
2026-05-04 09:37 -34.00953 151.19242 959 ft 138 kts 351°
2026-05-04 09:37 -34.00017 151.18998 774 ft 137 kts 351°
2026-05-04 09:38 -33.99085 151.18756 592 ft 137 kts 351°
2026-05-04 09:38 -33.98154 151.18514 409 ft 136 kts 349°
2026-05-04 09:38 -33.97227 151.18275 230 ft 136 kts 349°
2026-05-04 09:38 -33.96305 151.18033 71 ft 135 kts 347°
2026-05-04 09:39 -33.95426 151.17805 37 ft 119 kts 349°
2026-05-04 09:39 -33.94797 151.17644 35 ft 66 kts 348°
2026-05-04 09:39 -33.94576 151.17592 35 ft 15 kts 14°
2026-05-04 09:39 -33.94534 151.17655 35 ft 4 kts 75°
2026-05-04 09:40 -33.94533 151.17663 35 ft 0 kts 74°
2026-05-04 09:42 -33.94531 151.17671 35 ft 7 kts 74°
2026-05-04 09:43 -33.94517 151.17732 35 ft 8 kts 76°
2026-05-04 09:43 -33.94460 151.17774 35 ft 11 kts 345°
2026-05-04 09:43 -33.94386 151.17752 35 ft 11 kts 346°
2026-05-04 09:43 -33.94317 151.17730 35 ft 10 kts 345°
2026-05-04 09:44 -33.94253 151.17710 35 ft 9 kts 345°
2026-05-04 09:44 -33.94191 151.17691 35 ft 9 kts 346°
2026-05-04 09:44 -33.94133 151.17673 35 ft 8 kts 347°
2026-05-04 09:46 -33.93870 151.17603 35 ft 20 kts 348°
2026-05-04 09:46 -33.93738 151.17570 35 ft 19 kts 348°
2026-05-04 09:46 -33.93613 151.17537 35 ft 18 kts 347°
2026-05-04 09:47 -33.93493 151.17508 35 ft 17 kts 353°
2026-05-04 09:47 -33.93378 151.17502 35 ft 16 kts 352°
2026-05-04 09:49 -33.92795 151.17390 35 ft 6 kts 42°
2026-05-04 09:49 -33.92778 151.17433 35 ft 6 kts 78°
2026-05-04 09:49 -33.92772 151.17474 35 ft 4 kts 79°
2026-05-04 09:51 -33.92771 151.17479 35 ft 0 kts 79°